TimeEDT,TemperatureF,Dew PointF,Humidity,Sea Level PressureIn,VisibilityMPH,Wind Direction,Wind SpeedMPH,Gust SpeedMPH,PrecipitationIn,Events,Conditions,WindDirDegrees,DateUTC
12:26 AM,84.2,77.0,79,30.06,10.0,ESE,11.5,-,N/A,Thunderstorm,Thunderstorm,120,2013-08-22 04:26:00
12:53 AM,82.9,75.9,79,30.05,10.0,ESE,11.5,-,N/A,,Partly Cloudy,110,2013-08-22 04:53:00
1:43 AM,82.4,77.0,84,30.05,9.0,ESE,6.9,-,0.00,Rain-Thunderstorm,Light Thunderstorms and Rain,110,2013-08-22 05:43:00
1:53 AM,81.0,75.9,85,30.04,9.0,SSW,3.5,-,0.00,Thunderstorm,Thunderstorm,210,2013-08-22 05:53:00
2:21 AM,80.6,75.2,84,30.04,10.0,Calm,Calm,-,N/A,,Partly Cloudy,0,2013-08-22 06:21:00
2:53 AM,80.1,75.9,87,30.03,10.0,Calm,Calm,-,N/A,,Scattered Clouds,0,2013-08-22 06:53:00
3:53 AM,82.9,77.0,82,30.02,10.0,ESE,11.5,-,N/A,,Partly Cloudy,120,2013-08-22 07:53:00
4:53 AM,82.9,75.9,79,30.01,10.0,ESE,13.8,-,N/A,,Scattered Clouds,120,2013-08-22 08:53:00
5:53 AM,82.9,75.9,79,30.01,10.0,SE,10.4,-,N/A,,Partly Cloudy,130,2013-08-22 09:53:00
6:53 AM,82.9,75.9,79,30.01,10.0,ESE,12.7,-,N/A,,Partly Cloudy,120,2013-08-22 10:53:00
7:53 AM,82.9,75.9,79,30.03,10.0,ESE,12.7,-,N/A,,Partly Cloudy,110,2013-08-22 11:53:00
8:53 AM,84.9,75.9,74,30.04,10.0,ESE,13.8,-,N/A,,Partly Cloudy,110,2013-08-22 12:53:00
9:53 AM,86.0,75.9,72,30.05,10.0,East,13.8,-,N/A,,Partly Cloudy,100,2013-08-22 13:53:00
10:53 AM,88.0,75.9,67,30.06,10.0,East,15.0,-,N/A,,Partly Cloudy,100,2013-08-22 14:53:00
11:53 AM,88.0,75.9,67,30.05,10.0,East,16.1,-,N/A,,Scattered Clouds,100,2013-08-22 15:53:00
12:53 PM,87.1,77.0,72,30.04,10.0,East,17.3,-,N/A,,Mostly Cloudy,100,2013-08-22 16:53:00
1:53 PM,88.0,77.0,70,30.02,10.0,East,18.4,-,N/A,,Mostly Cloudy,100,2013-08-22 17:53:00
2:53 PM,88.0,75.9,67,30.01,10.0,East,13.8,21.9,N/A,,Scattered Clouds,100,2013-08-22 18:53:00
3:53 PM,88.0,75.9,67,29.98,10.0,ESE,13.8,-,N/A,,Partly Cloudy,110,2013-08-22 19:53:00
4:53 PM,87.1,75.9,69,29.98,10.0,East,16.1,-,N/A,,Partly Cloudy,100,2013-08-22 20:53:00
5:53 PM,86.0,75.0,70,29.97,10.0,East,13.8,-,N/A,,Scattered Clouds,100,2013-08-22 21:53:00
6:53 PM,84.0,75.0,74,29.96,10.0,East,12.7,-,N/A,,Scattered Clouds,100,2013-08-22 22:53:00
7:53 PM,84.0,75.0,74,29.98,10.0,East,12.7,-,N/A,,Scattered Clouds,100,2013-08-22 23:53:00
8:53 PM,84.0,75.0,74,30.01,10.0,East,11.5,-,N/A,,Partly Cloudy,100,2013-08-23 00:53:00
9:53 PM,84.0,75.0,74,30.00,10.0,East,15.0,-,N/A,,Partly Cloudy,100,2013-08-23 01:53:00
10:53 PM,82.9,75.0,77,30.01,10.0,East,12.7,-,N/A,,Partly Cloudy,100,2013-08-23 02:53:00
11:53 PM,82.9,73.0,72,30.01,10.0,ESE,11.5,-,N/A,,Partly Cloudy,110,2013-08-23 03:53:00